Location: Guadanolo
(41.9167°N, 12.9333°E)
Time: 16:56:53
(UTC+00:00)

SL-16 R/B - Pass Details

Date: 16 September 2019
Orbit: 840 x 849 km, 71.0° (Epoch: 14 October)

Event Time Altitude Azimuth Distance (km) Brightness Sun altitude
Rises 20:41:44 0° 333° (NNW) 3,414 6.3 -35.3°
Reaches altitude 10° 20:44:11 10° 331° (NNW) 2,476 5.4 -35.6°
Enters shadow 20:47:34 37° 322° (NW) 1,294 3.5 -36.0°
